Погода в Хвостихе

Россия / Ульяновская область     53°47′31″N   47°53′51″E
темп.,
°C
ветер,
м/с
пор.,
м/с
влажн.,
%
обл.,
%
осадки,
мм/ч
давл.,
гПа
погр.,
м
17 мая, пн
пн1701:00+19ююв335050 0.0 101634
04:00+18ююв455021 0.0 101659
07:00+19ююв386021 0.0 1017158
10:00+26ююз454177 0.0 1017512
13:00+30ю46325 0.0 10171702
16:00+30ю542615 0.0 10172953
19:00+26юз23445 0.0 101666
22:00+19ссв335866 0.0 101836
18 мая, вт
вт1801:00+18в225483 0.0 101714
04:00+17юв225011 0.0 101713
07:00+19вюв35545 0.0 1017101
10:00+26юв35355 0.0 1017418
13:00+29юв56274 0.0 10171372
16:00+29вюв56250 0.0 10161885
19:00+25в37420 0.0 1016128
22:00+21в45310 0.0 101669
19 мая, ср
ср1901:00+19вюв48395 0.0 1016102
04:00+17вюв49545 0.0 1016134
07:00+19вюв411724 0.0 1016279
10:00+24вюв69573 0.0 1016537
13:00+27вюв78444 0.0 10151198
16:00+27в78410 0.0 10151996
19:00+24в5115172 0.0 1014408
22:00+21вюв615574 0.2 1015375
20 мая, чт
чт2001:00+18вюв514620 0.0 1016379
04:00+17юв715560 0.0 1017492
07:00+16юв714640 0.0 1017479
10:00+21юв811520 0.0 1017836
13:00+24юв89390 0.0 10171366
16:00+24юв89340 0.0 10171692
19:00+22юв510480 0.0 1017370
22:00+17юв48585 0.0 1018128
21 мая, пт
пт2101:00+15юв4105868 0.0 1018177
04:00+14юв46635 0.0 101979
07:00+16ю246422 0.0 1019152
10:00+22ю355119 0.0 1019743
13:00+24ю554249 0.0 10202058
16:00+24зюз344992 0.0 10201397
19:00+22зсз356299 0.0 1020184
22:00+20ссз2261100 0.0 102119